sat.trackr.live / text

‹ back to catalog

STARLINK-33896

NORAD 63861 · 2025-093AB

PAYLOAD ACTIVE UNKNOWN

§ Identity

Operator
Country
US
Launch date
2025-05-07
Launch site
AFETR
Launch vehicle
Mass (kg)
RCS (m²)

Purposes: comms

External: N2YO · Heavens-Above · Gunter

§ Orbital elements

Epoch: 2026-09-19T18:39:01.121184Z

Period
94.27 min
Inclination
43.0020°
Eccentricity
0.0001721
Mean motion
15.27591419 rev/d
Perigee alt
481.8 km
Apogee alt
484.2 km
Semi-major
6,861.2 km
B*
6.5430e-4
RAAN
61.9210°
Arg perigee
268.4778°
Mean anomaly
91.5877°
Rev number
7,743

§ Raw data

STARLINK-338961 63861U 25093AB  26262.77709631  .00017793  00000+0  65430-3 0  99982 63861  43.0020  61.9210 0001721 268.4778  91.5877 15.27591419 77439

JSON: /api/v1/satellites/63861 · /tle

For live sub-satellite position, see the globe view (requires WebGL).

§ Visibility from observer

Set your observer location to see the next 7 days of passes ≥ 10°. The values pass through the URL so the page stays shareable.

No JS? Fill the form by hand. The geolocation button needs JavaScript.